Regional Weather Roundup
Issued by NWS Cleveland, OH

Home | Current Version | Previous Version | Text Only | Print | Product List | Glossary Off
Versions: 1 2 3 4 5 6 7 8 9 10 11 12 13 14 15 16 17 18 19 20 21 22 23 24 25 26 27 28 29 30 31 32 33 34 35 36 37 38 39 40 41 42 43 44 45 46 47 48 49 50

000
ASUS41 KCLE 140700
RWRCLE
OHIO REGIONAL WEATHER ROUNDUP
NATIONAL WEATHER SERVICE WILMINGTON, OH
300 AM EDT MON JUL 14 2014

NOTE: "FAIR" INDICATES FEW OR NO CLOUDS BELOW 12,000 FEET WITH NO
SIGNIFICANT WEATHER AND/OR OBSTRUCTIONS TO VISIBILITY.

OHZ001>008-015>018-024>027-034-035-043-044-140800-
   NORTHWEST OHIO

CITY           SKY/WX    TMP DP  RH WIND       PRES   REMARKS
DEFIANCE       PTCLDY    66  62  87 CALM      29.88F
FINDLAY        PTCLDY    66  63  90 S5        29.88F
TOLEDO EXPRESS MOCLDY    65  62  90 CALM      29.87F
TOLEDO METCALF MOCLDY    67  62  84 S3        29.88F
LIMA           PTCLDY    70  66  87 CALM      29.90F
$$

OHZ009>014-019>023-028>033-038-089-140800-
   NORTHEAST OHIO

CITY           SKY/WX    TMP DP  RH WIND       PRES   REMARKS
CLE-HOPKINS    PTCLDY    69  66  90 CALM      29.91F
CLE-LAKEFRONT  CLEAR     73  66  78 SE7       29.88S
CUY CO. ARPT   NOT AVBL
LORAIN-ELYRIA  CLEAR     69  65  86 CALM      29.90F
ASHTABULA      PTCLDY    65  62  90 CALM      29.91F
AKRON-CANTON   CLOUDY    70  67  90 SW7       29.92F FOG
WOOSTER        NOT AVBL
MANSFIELD      CLEAR     65  64  97 S3        29.93F
YOUNGSTOWN     PTCLDY    69  67  93 S3        29.92F
$$

OHZ042-051>053-060>062-070>072-077>081-140800-
  SOUTHWEST OHIO

CITY           SKY/WX    TMP DP  RH WIND       PRES   REMARKS
CINC-COVINGTON NOT AVBL
CINC-LUNKEN    MOCLDY    71  70  96 S3        29.91F
HAMILTON       PTCLDY    71  71 100 CALM      29.91F FOG
DAYTON         NOT AVBL
WRIGHT-PAT AFB NOT AVBL
DAYTON GENERAL PTCLDY    70  70 100 S5        29.91F FOG
WILMINGTON     PTCLDY    70  69  97 S5        29.92F FOG
$$

OHZ036-037-039>041-045>050-054>059-063>069-073>076-082>088-140800-
  CENTRAL AND SOUTHEAST OHIO

CITY           SKY/WX    TMP DP  RH WIND       PRES   REMARKS
COLUMBUS       PTCLDY    72  68  87 SE3       29.91F
OSU AIRPORT    CLOUDY    70  69  97 S7        29.91F FOG
BOLTON FIELD   NOT AVBL
RICKENBACK AFB NOT AVBL
NEWARK         PTCLDY    69  67  93 CALM      29.92F FOG
MARION         CLEAR     68  66  93 CALM      29.91F FOG
LANCASTER      MOCLDY    71  69  93 SE3       29.92F
ZANESVILLE     CLOUDY    71  69  93 S3        29.92F
NEW PHILLY     CLOUDY    72  70  93 CALM      29.93S
$$



USA.gov is the U.S. government's official web portal to all federal, state and local government web resources and services.